This is the latest recevied weather packets stored in our database for station/object LU1DAQ-10. If no packets are shown the sender has not sent any weather packets the latest 1 day(s).
| Time | Temp. | Humidity | Pressure | Rain* | Wind** | Luminosity | Snow |
|---|---|---|---|---|---|---|---|
| 1777933567 | 24.44° C | 34% | 1006.4 hPa | - | - | - | - |
| 1777932667 | 24.44° C | 34% | 1006.5 hPa | - | - | - | - |
| 1777931767 | 24.44° C | 34% | 1005.9 hPa | - | - | - | - |
| 1777930867 | 24.44° C | 33% | 1006.2 hPa | - | - | - | - |
| 1777929967 | 25° C | 33% | 1006.2 hPa | - | - | - | - |
| 1777929067 | 25° C | 33% | 1005.9 hPa | - | - | - | - |
| 1777928166 | 25.56° C | 33% | 1005.7 hPa | - | - | - | - |
| 1777927266 | 25.56° C | 32% | 1005.5 hPa | - | - | - | - |
| 1777926366 | 26.11° C | 32% | 1005.6 hPa | - | - | - | - |
| 1777925466 | 26.11° C | 31% | 1005.5 hPa | - | - | - | - |
| 1777924566 | 25.56° C | 32% | 1005.4 hPa | - | - | - | - |
| 1777923666 | 22.78° C | 36% | 1005.3 hPa | - | - | - | - |
| 1777922769 | 22.78° C | 36% | 1005.2 hPa | - | - | - | - |
| 1777921869 | 22.78° C | 36% | 1005.3 hPa | - | - | - | - |
| 1777920969 | 22.78° C | 36% | 1005.2 hPa | - | - | - | - |
| 1777920068 | 22.78° C | 36% | 1005.2 hPa | - | - | - | - |
| 1777919168 | 22.78° C | 36% | 1005.2 hPa | - | - | - | - |
| 1777918268 | 22.78° C | 36% | 1005.1 hPa | - | - | - | - |
| 1777917368 | 22.78° C | 36% | 1005.3 hPa | - | - | - | - |
| 1777916468 | 22.78° C | 36% | 1005.3 hPa | - | - | - | - |
| 1777915568 | 22.78° C | 36% | 1005.5 hPa | - | - | - | - |
| 1777914668 | 23.33° C | 36% | 1005.8 hPa | - | - | - | - |
| 1777913768 | 23.33° C | 36% | 1005.6 hPa | - | - | - | - |
| 1777912868 | 23.33° C | 36% | 1006.1 hPa | - | - | - | - |
| 1777911968 | 23.33° C | 36% | 1006.4 hPa | - | - | - | - |
* Rain since midnight (hover to see other rain measurements)
** Current wind speed in m/s (hover to see current wind gust speed)